Regional Weather Roundup
Issued by NWS Sterling, VA

Home | Current Version | Previous Version | Graphics & Text | Print | Product List | Glossary On
Versions: 1 2 3 4 5 6 7 8 9 10 11 12 13 14 15 16 17 18 19 20 21 22 23 24 25 26 27 28 29 30 31 32 33 34 35 36 37 38 39 40 41 42 43 44 45 46 47 48 49 50
000
ASUS41 KLWX 281110
RWRLWX

REGIONAL WEATHER ROUNDUP
NATIONAL WEATHER SERVICE BALTIMORE MD/WASHINGTON DC
700 AM EDT FRI AUG 28 2015

Note: "FAIR" indicates few or no clouds below 12,000 feet
with no significant weather and/or obstructions to visibility.
 TC=TEMPERATURE CELSIUS

 * =Non NWS site. Station does not report precipitation (e.g. rain,
    snow, etc.), thunder, or fog.

DCZ001-MDZ009-015-VAZ040>042-051-053>054-281200-
WASHINGTON METRO

CITY           SKY/WX    TMP DP  RH WIND       PRES   REMARKS
WASHINGTON NAT PTCLDY    66  60  81 NE5       30.18R
DULLES         PTCLDY    60  57  89 NW5       30.18R
ANDREWS AFB    CLEAR     58  56  91 CALM      30.17R
FT BELVOIR     CLEAR     59  57  95 CALM      30.17R
QUANTICO       CLEAR     61  57  87 NW8       30.19R
COLLEGE PARK*  PTCLDY    59  59 100 CALM      30.17R
LEESBURG*      PTCLDY    59  59 100 CALM      30.20R
GAITHERSBURG*  CLEAR     55  52  88 CALM      30.22R

$$

MDZ006>007-011-014-281200-
BALTIMORE METRO

CITY           SKY/WX    TMP DP  RH WIND       PRES   REMARKS
BWI AIRPORT    PTCLDY    59  57  93 CALM      30.17R
MD SCIENCE CTR   N/A     66  56  70 MISG      30.18R
MARTIN STATE   PTCLDY    61  61 100 CALM      30.19R
ANNAPOLIS      CLEAR     67  62  84 N5        30.17R
FORT MEADE*    CLEAR     54  54 100 CALM      30.20R

$$

MDZ012-015-019>023-281200-
MARYLAND EASTERN SHORE

CITY           SKY/WX    TMP DP  RH WIND       PRES   REMARKS
OCEAN CITY     CLEAR     59  56  89 N6        30.14S
SALISBURY      CLEAR     59  57  93 CALM      30.15R
BAY BRIDGE AP*   N/A     64  59  82 CALM      30.17R
CAMBRIDGE*     CLEAR     57  55  94 CALM      30.16R
EASTON*        CLEAR     59  59 100 CALM      30.20R

$$

MDZ017>025-281200-
SOUTHERN MARYLAND

CITY           SKY/WX    TMP DP  RH WIND       PRES   REMARKS
PATUXENT RIVER PTCLDY    60  57  89 NE3       30.16R
ST INIGOES     CLEAR     58  57  97 CALM      30.15R
LEONARDTOWN*   CLEAR     57  55  94 CALM      30.18R

$$

MDZ003>005-281200-
NORTH CENTRAL MARYLAND

CITY           SKY/WX    TMP DP  RH WIND       PRES   REMARKS
FREDERICK*     MOCLDY    55  55 100 CALM      30.21R
HAGERSTOWN APT PTCLDY    59  53  80 CALM      30.19R
WESTMINSTER*   MOCLDY    57  54  88 CALM      30.19R

$$

MDZ501>502-281200-
WESTERN MARYLAND

CITY           SKY/WX    TMP DP  RH WIND       PRES   REMARKS
OAKLAND*       PTCLDY    52  50  93 SE5       30.24R
CUMBERLAND*    MOCLDY    57  54  88 N3        30.26R

$$

VAZ025>031-281200-
SHENANDOAH VALLEY

CITY           SKY/WX    TMP DP  RH WIND       PRES   REMARKS
WINCHESTER*    MOCLDY    55  54  94 CALM      30.20R
FRONT ROYAL*   PTSUNNY   55  55 100 CALM      30.18S
LURAY*         PTSUNNY   55  55 100 CALM      30.20R
NEW MARKET*    CLOUDY    56  55  97 CALM      30.20R
STAUNTON*      CLEAR     56  53  91 CALM      30.23R
WAYNESBORO*    FAIR      57  55  91 CALM      30.21R

$$

WVZ021-048>050-054>055-281200-
EASTERN WEST VIRGINIA PANHANDLE

CITY           SKY/WX    TMP DP  RH WIND       PRES   REMARKS
MARTINSBURG    MOCLDY    55  53  93 CALM      30.20R FOG
PETERSBURG*    MOCLDY    55  55  99 CALM      30.22R FOG

$$

VAZ036>039-050-281200-
CENTRAL FOOTHILLS

CITY           SKY/WX    TMP DP  RH WIND       PRES   REMARKS
CHARLOTTESVILL PTCLDY    63  59  87 CALM      30.18R
CULPEPER*      CLEAR     57  57  98 CALM      30.19R FOG
ORANGE*        PTCLDY    59  57  94 CALM      30.20R
GORDONSVILLE*  PTSUNNY   59  58  97 CALM      30.18R
WARRENTON*     FOG       55  55 100 CALM      30.18R VSB 3/4

$$

VAZ055>057-281200-
NORTH AND CENTRAL PIEDMONT

CITY           SKY/WX    TMP DP  RH WIND       PRES   REMARKS
FREDERICKSBRG* PTCLDY    61  61 100 CALM      30.17R
STAFFORD*      MOCLDY    56  56  97 CALM      30.21R

$$

NCZ024-NYZ072-PAZ021-071-VAZ022-071-281200-
OTHER REGIONAL OBSERVATIONS

CITY           SKY/WX    TMP DP  RH WIND       PRES   REMARKS
NEW YORK CITY  CLEAR     65  53  65 CALM      30.19R
PHILADELPHIA   PTCLDY    66  54  65 NW3       30.17R
PITTSBURGH     PTCLDY    54  51  90 NW3       30.21R
ROANOKE        PTCLDY    62  59  90 CALM      30.22R
RICHMOND       PTCLDY    61  58  90 N5        30.16R
RALEIGH        PTCLDY    61  59  93 CALM      30.16R

$$

ANZ530>537-281200-
MARINE OBSERVATIONS

STATION/POSITION TIME  TEMP    WIND        PRES
                       AIR SEA DIR/SP/G
                 (UTC) (F)     (DEG/KT/KT) (MB)
THOMAS PT LIGHT  NOT AVBL
BALT KEY BRIDGE  1000   68     330/  4/  5 1021.1R
COVE POINT       1000   70      70/  8/ 10 1021.6R
LEWISETTA        1000   73 78   30/  3/  5 1020.3R
SOLOMONS ISLAND  1000      81                N/A
PINEY POINT      1018           60/  2/  3   N/A

$$



USA.gov is the U.S. government's official web portal to all federal, state and local government web resources and services.